Location: Unspecified
(0.0000°N, 0.0000°E)
Time: 02:22:04
(UTC+00:00)

CZ-3C DEB - Pass Details

Date: 18 February 2026
Orbit: 408 x 32633 km, 21.5° (Epoch: 28 September)

Event Time Altitude Azimuth Distance (km) Brightness Sun altitude
Rises 21:23:03 0° 248° (WSW) 3,117 ? -46.1°
Reaches altitude 10° 21:24:25 10° 248° (WSW) 2,544 ? -46.4°
Enters shadow 21:25:24 20° 248° (WSW) 2,184 ? -46.6°
Exits shadow 22:08:17 14° 66° (ENE) 14,509 ? -56.8°
Drops below altitude 10° 05:46:15 10° 92° (E) 15,859 ? -6.8°
Sets 05:57:49 0° 96° (E) 14,179 ? -3.9°
